Location: Broletto
(44.6000°N, 10.5833°E)
Time: 02:12:21
(UTC+00:00)

SeaSat 1 - Pass Details

Date: 18 April 2021
Orbit: 744 x 747 km, 108.0° (Epoch: 07 May)

Event Time Altitude Azimuth Distance (km) Brightness Sun altitude
Rises 21:20:20 0° 32° (NNE) 3,201 6.0 -28.3°
Reaches altitude 10° 21:22:42 10° 38° (NE) 2,273 5.1 -28.6°
Enters shadow 21:24:38 23° 49° (NE) 1,572 4.1 -28.7°
